Location: Nied?wied?
(53.3665°N, 14.8184°E)
Time: 19:58:28
(UTC+00:00)

Cosmos 2360 Rocket - Visible Passes

Search period start: 19 June 2021 00:00
Search period end: 29 June 2021 00:00
Orbit: 835 x 844 km, 71.0° (Epoch: 18 June)

Date Brightness Start Highest point End Pass type
(mag) Time Alt. Az. Time Alt. Az. Time Alt. Az.
19 Jun 5.2 00:49:51 10° NNW 00:52:24 13° N 00:54:56 10° NNE visible
19 Jun 2.7 20:59:31 10° SW 21:05:08 64° NW 21:10:46 10° NNE visible
19 Jun 4.8 22:45:59 10° W 22:50:15 21° NNW 22:54:31 10° NNE visible
20 Jun 5.2 00:34:00 10° NNW 00:36:33 13° N 00:39:06 10° NNE visible
20 Jun 2.7 20:43:44 10° SW 20:49:21 67° NW 20:55:00 10° NNE visible
20 Jun 4.8 22:30:06 10° W 22:34:26 22° NNW 22:38:46 10° NNE visible
21 Jun 5.2 00:18:08 10° NNW 00:20:42 13° N 00:23:17 10° NNE visible
21 Jun 2.6 20:27:57 10° SW 20:33:36 70° NW 20:39:15 10° NNE visible
21 Jun 4.8 22:14:14 10° W 22:18:37 23° NNW 22:23:01 10° NNE visible
22 Jun 5.3 00:02:16 10° NNW 00:04:52 13° N 00:07:28 10° NNE visible
22 Jun 4.8 21:58:21 10° W 22:02:48 23° NNW 22:07:16 10° NNE visible
22 Jun 5.3 23:46:24 10° NNW 23:49:01 13° N 23:51:38 10° NNE visible
23 Jun 5.2 01:31:53 10° NNW 01:35:30 17° NNE 01:39:07 10° ENE visible
23 Jun 4.8 21:42:29 10° W 21:46:59 24° NNW 21:51:31 10° NNE visible
23 Jun 5.4 23:30:31 10° NW 23:33:10 13° N 23:35:50 10° NNE visible
24 Jun 5.3 01:16:07 10° NNW 01:19:40 17° NNE 01:23:13 10° ENE visible
24 Jun 4.8 21:26:36 10° W 21:31:11 25° NW 21:35:46 10° NNE visible
24 Jun 5.4 23:14:38 10° NW 23:17:20 13° N 23:20:01 10° NNE visible
25 Jun 5.3 01:00:21 10° NNW 01:03:50 16° NNE 01:07:19 10° ENE visible
25 Jun 4.7 21:10:44 10° W 21:15:22 25° NW 21:20:01 10° NNE visible
25 Jun 5.5 22:58:45 10° NW 23:01:29 13° N 23:04:13 10° NNE visible
26 Jun 5.4 00:44:36 10° NNW 00:48:00 16° NNE 00:51:25 10° ENE visible
26 Jun 4.7 20:54:52 10° W 20:59:34 26° NW 21:04:17 10° NNE visible
26 Jun 5.5 22:42:53 10° NW 22:45:39 14° N 22:48:25 10° NNE visible
27 Jun 5.5 00:28:49 10° NNW 00:32:10 16° NNE 00:35:30 10° NE visible
27 Jun 4.7 20:38:59 10° W 20:43:45 27° NW 20:48:31 10° NNE visible
27 Jun 5.6 22:26:59 10° NW 22:29:49 14° N 22:32:37 10° NNE visible
28 Jun 5.5 00:13:04 10° NNW 00:16:20 15° NNE 00:19:36 10° NE visible
28 Jun 4.7 20:23:08 10° W 20:27:57 28° NW 20:32:47 10° NNE visible
28 Jun 5.6 22:11:06 10° NW 22:13:58 14° NNW 22:16:50 10° NNE visible
